{"data":{"norad_id":62658,"intl_designator":"2025-009BB","name":"TROLL","alt_names":[],"object_type":"PAYLOAD","status":"ACTIVE","operator":null,"country":"CZCH","launch_date":"2025-01-14","launch_site_code":"AFWTR","launch_vehicle":null,"mission":null,"orbit_class":"UNKNOWN","rcs_meters":null,"size_class":null,"mass_kg":null,"dimensions":null,"purposes":[],"wikipedia_slug":null,"has_3d_model":false,"image_url":null,"decayed_at":null,"tle_current":{"epoch":"2026-05-25T04:31:17.815296Z","epoch_age_seconds":54940,"freshness":"FRESH","line1":"1 62658U 25009BB  26145.18840064  .00009600  00000+0  33659-3 0  9995","line2":"2 62658  97.3890 227.1642 0002895  99.4099 260.7468 15.29658426129938","mean_motion":15.29658426,"eccentricity":0.0002895,"inclination_deg":97.389,"raan_deg":227.1642,"arg_perigee_deg":99.4099,"mean_anomaly_deg":260.7468,"bstar":0.00033659,"rev_number":12993,"period_min":94.138663607767,"perigee_km":474.84807514271,"apogee_km":478.81710253465,"semimajor_km":6854.9695888387,"source":"CELESTRAK","updated_at":"2026-05-25T13:38:03.161137Z"}}}